TIME,DELAY(SENSOR),PRES,T(CTD),SAL,OXYGEN,RAWTEMP,T(OPTODE),TCPHASE,TURBIDITY,TURBIDITY_GAIN,FLUOR,BETA,CDOM,CHECK
1344673265,8891,1005.4199829101562000,6.1559000015258790,35.0919990539550800,238.7189941406250000,635.8535156250000000,6.1488571166992190,36.3686904907226560,16,3,50,84,70,15332
1344673378,8891,994.1900024414062000,6.1771998405456540,35.0881996154785160,236.4667968750000000,635.2224121093750000,6.1695880889892580,36.4732818603515600,16,3,50,85,71,15332
1344673491,8892,983.0599975585938000,6.2502999305725100,35.0886001586914060,234.8809051513672000,633.3184204101562000,6.2321028709411620,36.5199584960937500,16,3,50,84,70,15331
1344673604,8891,972.2800292968750000,6.3428997993469240,35.0881996154785160,231.6804046630859400,630.3367919921875000,6.3299269676208500,36.6326713562011700,16,3,50,84,70,15329
1344673729,8892,960.8400268554688000,6.4211997985839840,35.0875015258789060,229.3303070068359400,627.0997924804688000,6.4360218048095700,36.6977500915527340,16,3,52,86,70,15328
1344673844,8892,950.6900024414062000,6.6641998291015625,35.0936012268066400,223.7068023681640600,620.4376220703125000,6.6540369987487790,36.8784790039062500,16,3,50,86,70,15329
1344673971,8891,939.7600097656250000,6.8018999099731445,35.0932998657226560,217.7559967041015600,616.1207275390625000,6.7950630187988280,37.1314811706543000,16,3,50,86,72,15328
1344674110,8891,928.1199951171875000,6.9769001007080080,35.0979003906250000,213.6080017089843800,611.2277221679688000,6.9546761512756350,37.2771492004394500,16,3,50,86,70,15328
1344674237,8891,917.4199829101562000,7.0545997619628910,35.1022987365722660,210.4819946289062500,608.4904174804688000,7.0438628196716310,37.4085197448730500,16,3,50,86,70,15327
1344674364,8890,906.4899902343750000,7.2298998832702640,35.1077003479003900,206.6667022705078000,603.2725219726562000,7.2136688232421875,37.5381507873535160,16,3,50,86,71,15327
1344674491,8892,895.2399902343750000,7.2986001968383790,35.1125984191894500,204.4008026123047000,601.1536865234375000,7.2825407981872560,37.6353492736816400,16,3,50,86,70,15326
1344674618,8892,884.0399780273438000,7.4170999526977540,35.1185989379882800,201.9225006103515600,597.4584960937500000,7.4025568962097170,37.7191810607910160,16,3,50,88,70,15326
1344674745,8891,872.6799926757812000,7.5447998046875000,35.1222000122070300,199.1439971923828000,593.2291870117188000,7.5397529602050780,37.8124618530273440,16,3,50,86,70,15326
1344674872,8891,861.6300048828125000,7.7582998275756840,35.1335983276367200,195.1141967773437500,586.4890747070312000,7.7580509185791020,37.9425010681152340,16,3,50,86,70,15327
1344675011,8891,849.8900146484375000,7.9660000801086430,35.1416015625000000,190.5536041259765600,580.0200195312500000,7.9671669006347660,38.1177711486816400,16,3,50,87,72,15326
1344675138,8890,839.1400146484375000,8.2118997573852540,35.1539993286132800,184.7902069091797000,572.7006835937500000,8.2033004760742190,38.3656196594238300,16,3,50,87,70,15324
1344675265,8890,828.6099853515625000,8.3309001922607420,35.1609992980957000,181.7711029052734400,568.8120117187500000,8.3285579681396480,38.4998893737793000,15,3,50,86,70,15322
1344675404,8892,817.0200195312500000,8.4839000701904300,35.1674995422363300,177.7035980224609400,564.1265258789062000,8.4793014526367190,38.6956901550293000,16,3,52,90,70,15322
1344675531,8891,806.4299926757812000,8.8575000762939450,35.1903991699218750,173.1533050537109400,552.9846801757812000,8.8369922637939450,38.8191719055175800,16,3,50,86,70,15322
1344675670,8890,795.6599731445312000,8.9827995300292970,35.2056999206543000,171.7752990722656200,548.5560302734375000,8.9788703918457030,38.8392410278320300,16,3,50,86,70,15324
1344675804,8892,784.2600097656250000,9.2182998657226560,35.2209014892578100,167.9436035156250000,541.3159790039062000,9.2104606628417970,38.9911918640136700,15,3,50,88,70,15320
1344675919,8891,773.1599731445312000,9.4818000793457030,35.2388992309570300,165.4046936035156200,532.6975708007812000,9.4855842590332030,39.0293502807617200,16,3,50,86,69,15322
1344676034,8890,762.5900268554688000,9.8065004348754880,35.2725982666015600,164.5529937744140600,523.0180053710938000,9.7938728332519530,38.9268188476562500,16,3,50,86,70,15324
1344676161,8890,751.2500000000000000,10.0752000808715820,35.3022003173828100,163.6781005859375000,514.5524902343750000,10.0628995895385740,38.8476409912109400,15,3,50,86,70,15320
1344676288,8893,740.1099853515625000,10.2347002029418950,35.3193016052246100,162.1797027587890600,509.0286865234375000,10.2381496429443360,38.8676300048828100,16,3,50,86,70,15322
1344676415,8892,729.2500000000000000,10.4096002578735350,35.3362998962402340,161.3135986328125000,503.5568847656250000,10.4115295410156250,38.8412017822265600,16,3,50,86,68,15322
1344676542,8891,718.5300292968750000,10.7139997482299800,35.3716011047363300,161.2371063232422000,494.2898864746094000,10.7046699523925780,38.6907882690429700,16,3,50,86,69,15323
1344676669,8890,707.5300292968750000,11.0373001098632810,35.4091987609863300,162.4405975341797000,484.0469055175781000,11.0279903411865230,38.4277496337890600,16,3,50,87,69,15320
1344676796,8892,696.6500244140625000,11.3737001419067380,35.4500007629394500,162.6331939697265600,473.2701110839844000,11.3673896789550780,38.2352485656738300,16,3,50,86,68,15320
1344676923,8891,685.7000122070312000,11.5305995941162110,35.4757003784179700,164.4190063476562500,467.8595886230469000,11.5375099182128900,38.0111503601074200,16,3,50,84,67,15322
1344677050,8891,674.4299926757812000,11.8465003967285160,35.5233993530273440,168.3726043701172000,458.1879882812500000,11.8411397933959960,37.5586013793945300,16,3,50,84,68,15324
1344677177,8891,662.8699951171875000,12.1400995254516600,35.5658988952636700,172.4051971435547000,448.7932128906250000,12.1355400085449220,37.1143302917480500,16,3,50,86,67,15323
1344677292,8890,652.5200195312500000,12.4097995758056640,35.5974006652832000,172.8600006103515600,439.7374877929687500,12.4188404083251950,36.9356689453125000,16,3,50,85,68,15322
1344677419,8891,641.4899902343750000,12.6682996749877930,35.6344985961914060,175.2402954101562500,431.5281066894531000,12.6752595901489260,36.6353797912597660,16,3,50,84,68,15322
1344677558,8892,630.1599731445312000,12.9520998001098630,35.6741981506347660,177.2032012939453000,422.3680114746094000,12.9609498977661130,36.3515510559082000,16,3,50,84,68,15321
1344677715,8892,616.7600097656250000,13.3741998672485350,35.7360992431640600,180.8677978515625000,409.1939086914062500,13.3710899353027340,35.8922996520996100,16,3,50,84,66,15321
1344677830,8892,605.8900146484375000,13.6176004409790040,35.7748985290527340,185.2942962646484400,400.0804138183594000,13.6543302536010740,35.4538612365722660,16,3,50,85,66,15318
1344677945,8892,595.4000244140625000,13.9337997436523440,35.8230018615722660,189.8439941406250000,391.0320129394531000,13.9351701736450200,35.0187110900878900,16,3,50,85,66,15320
1344678072,8891,584.2100219726562000,14.0551004409790040,35.8451004028320300,192.5722961425781200,386.9370117187500000,14.0621595382690430,34.7823905944824200,16,3,50,86,66,15319
1344678199,8891,573.0000000000000000,14.3430995941162110,35.8900985717773440,194.5780944824218800,377.5715942382812500,14.3523101806640620,34.5138015747070300,16,3,50,85,66,15318
1344678314,8891,562.7000122070312000,14.5107002258300780,35.9185981750488300,193.7772064208984400,372.2513122558594000,14.5169897079467770,34.4824790954589840,17,3,50,86,66,15318
1344678429,8891,551.9500122070312000,14.7007999420166020,35.9502983093261700,194.2196960449218800,365.8124084472656000,14.7161397933959960,34.3569412231445300,16,3,50,86,66,15318
1344678544,8890,540.9400024414062000,14.9244003295898440,35.9882011413574200,195.8352050781250000,358.7824096679687500,14.9334096908569340,34.1515388488769500,16,3,50,86,64,15318
1344678657,8892,530.0700073242188000,15.2080001831054690,36.0373001098632800,198.9725036621093800,349.8344116210937500,15.2097101211547850,33.8262786865234400,16,3,50,84,64,15316
1344678772,8891,519.1900024414062000,15.4110002517700200,36.0728988647460940,199.9880065917968800,342.7052917480469000,15.4296598434448240,33.6593399047851560,16,3,50,86,64,15317
1344678887,8891,508.1000061035156000,15.6490001678466800,36.1158981323242200,201.9456939697265600,335.3406066894531000,15.6567201614379880,33.4350509643554700,16,3,50,86,64,15315
1344679002,8892,496.8800048828125000,15.7779998779296880,36.1402015686035160,203.5334014892578000,330.9751892089844000,15.7912302017211910,33.2775802612304700,16,3,50,86,64,15314
1344679117,8890,485.8099975585937500,16.0631008148193360,36.1908988952636700,205.5222015380859400,321.7643127441406000,16.0748901367187500,33.0275001525878900,16,3,50,85,64,15314
1344679232,8890,475.1099853515625000,16.2877998352050780,36.2336006164550800,208.0373992919922000,314.4735107421875000,16.2992591857910160,32.7784309387207000,16,3,50,86,64,15312
1344679359,8890,463.8599853515625000,16.4277000427246100,36.2607994079589840,209.8087005615234400,310.0317993164062500,16.4358997344970700,32.6144294738769500,16,3,50,86,62,15312
1344679486,8891,452.8699951171875000,16.5557003021240230,36.2867012023925800,211.2888946533203000,305.8825073242187500,16.5634994506835940,32.4726600646972660,16,3,50,86,63,15313
1344679613,8893,441.7500000000000000,16.6639995574951170,36.3083992004394500,212.8827056884765600,301.7197875976562500,16.6914691925048830,32.3252487182617200,16,3,50,86,64,15311
1344679740,8891,430.5199890136719000,16.8292999267578120,36.3380012512207000,215.1488952636718800,297.1560974121094000,16.8317394256591800,32.1365699768066400,16,3,50,85,62,15313
1344679867,8892,419.2200012207031000,16.9382991790771500,36.3610992431640600,216.4084930419922000,293.1989135742187500,16.9533405303955080,32.0124816894531250,16,3,50,86,63,15312
1344679994,8892,407.8699951171875000,17.0846004486084000,36.3880996704101560,218.3601989746093800,288.8570861816406000,17.0867195129394530,31.8469505310058600,16,3,50,86,62,15313
